User: anonymous   Login
Location: Unspecified
(0.0000°N, 0.0000°E)
Time: 05:01:50
(UTC+00:00)
Language:

N. Korean satellite - Orbit

View from above orbital plane
View from above orbital plane
View from above satellite
View from above satellite

Ground track
Ground track

The orbit data is extracted from the following two-line orbital elements,

1 39026U 12072A   17235.37333370 +.00001879 +00000-0 +75135-4 0  9999
2 39026 097.2222 250.9198 0038701 300.5333 059.2088 15.25654867260173
Epoch (UTC): 23 August 2017 08:57:36
Eccentricity: 0.0038701
inclination: 97.2222°
perigee height: 462 km
apogee height: 515 km
right ascension of ascending node: 250.9198°
argument of perigee: 300.5333°
revolutions per day: 15.25654867
mean anomaly at epoch: 59.2088°
orbit number at epoch: 26017

The dashed part of the orbit path shows where the satellite is in the earth's shadow,  

DLR